User: anonymous   Login
Location: Del Oro Observatory
(38.3044°N, 104.8119°W)
Time: 08:23:23
(UTC-07:00)
Language:

Cosmos 1602 Rocket - Orbit

View from above orbital plane
View from above orbital plane
View from above satellite
View from above satellite

Ground track
Ground track

The orbit data is extracted from the following two-line orbital elements,

1 15332U 84105B   16344.04541079  .00000111  00000-0  10620-4 0  9996
2 15332  82.5342   5.8032 0019611 277.9513 111.7508 14.83280160738408
Epoch (UTC): 09 December 2016 01:05:23
Eccentricity: 0.0019611
inclination: 82.5342°
perigee height: 605 km
apogee height: 633 km
right ascension of ascending node: 5.8032°
argument of perigee: 277.9513°
revolutions per day: 14.83280160
mean anomaly at epoch: 111.7508°
orbit number at epoch: 73840

The dashed part of the orbit path shows where the satellite is in the earth's shadow,  

DLR